TimeMST,TemperatureF,Dew PointF,Humidity,Sea Level PressureIn,VisibilityMPH,Wind Direction,Wind SpeedMPH,Gust SpeedMPH,PrecipitationIn,Events,Conditions,WindDirDegrees,DateUTC
12:53 AM,10.0,3.0,73,30.35,10.0,ENE,3.5,-,N/A,,Scattered Clouds,60,2013-01-23 07:53:00
1:53 AM,8.1,1.9,76,30.39,10.0,East,4.6,-,N/A,,Clear,80,2013-01-23 08:53:00
2:53 AM,3.0,-0.9,84,30.42,10.0,Calm,Calm,-,N/A,,Partly Cloudy,0,2013-01-23 09:53:00
3:53 AM,-0.0,-2.9,88,30.43,10.0,Calm,Calm,-,N/A,,Clear,0,2013-01-23 10:53:00
4:53 AM,-0.0,-5.1,79,30.46,10.0,Calm,Calm,-,N/A,,Clear,0,2013-01-23 11:53:00
5:53 AM,-0.9,-6.0,79,30.48,10.0,Calm,Calm,-,N/A,,Clear,0,2013-01-23 12:53:00
6:53 AM,1.0,-4.0,79,30.49,10.0,NE,5.8,-,N/A,,Clear,40,2013-01-23 13:53:00
7:53 AM,1.9,-2.9,80,30.53,10.0,Calm,Calm,-,N/A,,Mostly Cloudy,0,2013-01-23 14:53:00
8:53 AM,3.9,-0.9,80,30.55,10.0,Calm,Calm,-,N/A,,Scattered Clouds,0,2013-01-23 15:53:00
9:53 AM,6.1,-0.0,76,30.55,10.0,East,9.2,-,N/A,,Scattered Clouds,80,2013-01-23 16:53:00
10:53 AM,7.0,1.0,77,30.55,10.0,East,11.5,-,N/A,,Mostly Cloudy,100,2013-01-23 17:53:00
11:53 AM,7.0,-0.9,70,30.56,10.0,ESE,8.1,-,N/A,,Mostly Cloudy,110,2013-01-23 18:53:00
12:53 PM,7.0,-2.9,64,30.54,10.0,East,6.9,-,N/A,,Scattered Clouds,100,2013-01-23 19:53:00
1:53 PM,7.0,-2.0,67,30.52,10.0,East,10.4,-,N/A,,Mostly Cloudy,100,2013-01-23 20:53:00
2:53 PM,7.0,-4.0,61,30.50,10.0,East,13.8,-,N/A,,Overcast,90,2013-01-23 21:53:00
3:53 PM,6.1,-2.0,69,30.50,10.0,East,15.0,-,N/A,,Mostly Cloudy,90,2013-01-23 22:53:00
4:53 PM,6.1,-2.0,69,30.47,10.0,East,16.1,-,N/A,,Clear,100,2013-01-23 23:53:00
5:53 PM,6.1,-2.0,69,30.45,10.0,East,13.8,-,N/A,,Clear,90,2013-01-24 00:53:00
6:53 PM,6.1,-0.9,73,30.44,10.0,East,11.5,-,N/A,,Clear,80,2013-01-24 01:53:00
7:53 PM,5.0,-2.0,73,30.40,10.0,East,15.0,-,N/A,,Clear,80,2013-01-24 02:53:00
8:53 PM,5.0,-0.9,76,30.36,10.0,East,15.0,-,N/A,,Clear,80,2013-01-24 03:53:00
9:53 PM,5.0,-0.9,76,30.32,10.0,ENE,16.1,-,N/A,,Clear,70,2013-01-24 04:53:00
10:53 PM,7.0,1.0,77,30.28,10.0,East,12.7,-,N/A,,Clear,80,2013-01-24 05:53:00
11:53 PM,9.0,1.9,73,30.25,10.0,East,13.8,-,N/A,,Clear,90,2013-01-24 06:53:00